Find Starlink 36639

NORAD ID: 67669 Int'l Des: 2026-022 Owner: SPXS Country: US Constellation: starlink operational
LEOCIRCULARRETROGRADE

Live Position

Loading 3D Globe...

About Starlink 36639

Description loading...

Upcoming Passes

Passes for default location (London). Set your location on the main map for personalized predictions.

Altitude History

Loading altitude history...

Two-Line Element Set

1 67669U 26022X 26111.55962246 .00021288 00000-0 65948-3 0 9992
2 67669 97.2857 145.3071 0001081 94.4028 265.7338 15.33463474 12144
Epoch: Apr 21, 2026 • Age: 28 hours

Current Status

Altitude 467.5 km
Velocity 7.63 km/s
Sub-Earth Point 11.32°N, 29.17°E
Launch Date Feb 2, 2026
Age 0.2 years
Type internet

Technical Details

Classification Payload
Mass 575.00 kg
Dry Mass 530.00 kg
Total Mass 575.00 kg
Length 0.30 m
Diameter 4.10 m
Span 29.00 m
Shape Box + pan
Manufacturer SPXS
Bus Type Starlink V2MO
Phase Status In Orbit
Owner/State SPXS/US

Most Searched